TimeEDT,TemperatureF,Dew PointF,Humidity,Sea Level PressureIn,VisibilityMPH,Wind Direction,Wind SpeedMPH,Gust SpeedMPH,PrecipitationIn,Events,Conditions,WindDirDegrees,DateUTC
12:53 AM,62.1,57.0,84,30.24,10.0,Calm,Calm,-,N/A,,Clear,0,2013-04-26 04:53:00
1:53 AM,61.0,55.9,83,30.23,10.0,Calm,Calm,-,N/A,,Clear,0,2013-04-26 05:53:00
2:53 AM,63.0,53.1,70,30.22,10.0,NNW,3.5,-,N/A,,Clear,340,2013-04-26 06:53:00
3:53 AM,61.0,48.0,62,30.22,10.0,NNW,3.5,-,N/A,,Clear,330,2013-04-26 07:53:00
4:53 AM,62.1,41.0,46,30.22,10.0,North,4.6,-,N/A,,Clear,360,2013-04-26 08:53:00
5:53 AM,60.1,36.0,41,30.23,10.0,NNE,5.8,-,N/A,,Clear,20,2013-04-26 09:53:00
6:53 AM,59.0,35.1,41,30.24,10.0,NNE,5.8,-,N/A,,Clear,30,2013-04-26 10:53:00
7:53 AM,60.1,36.0,41,30.27,10.0,NNE,5.8,-,N/A,,Clear,30,2013-04-26 11:53:00
8:53 AM,64.0,34.0,33,30.28,10.0,NE,8.1,-,N/A,,Clear,40,2013-04-26 12:53:00
9:53 AM,70.0,35.1,28,30.30,10.0,Variable,6.9,-,N/A,,Clear,0,2013-04-26 13:53:00
10:53 AM,73.9,37.0,26,30.30,10.0,ENE,10.4,17.3,N/A,,Clear,70,2013-04-26 14:53:00
11:53 AM,77.0,37.9,24,30.30,10.0,East,8.1,-,N/A,,Clear,100,2013-04-26 15:53:00
12:53 PM,80.1,39.0,23,30.29,10.0,ENE,8.1,-,N/A,,Clear,60,2013-04-26 16:53:00
1:53 PM,82.0,37.0,20,30.28,10.0,NE,8.1,-,N/A,,Clear,50,2013-04-26 17:53:00
2:53 PM,82.9,37.0,19,30.27,10.0,East,8.1,-,N/A,,Clear,80,2013-04-26 18:53:00
3:53 PM,84.0,39.0,20,30.24,10.0,Variable,3.5,-,N/A,,Clear,0,2013-04-26 19:53:00
4:53 PM,84.9,37.9,19,30.21,10.0,ENE,5.8,-,N/A,,Clear,60,2013-04-26 20:53:00
5:53 PM,84.9,42.1,22,30.20,10.0,Variable,5.8,-,N/A,,Clear,0,2013-04-26 21:53:00
6:53 PM,82.9,44.1,25,30.22,10.0,ESE,6.9,-,N/A,,Clear,120,2013-04-26 22:53:00
7:53 PM,81.0,45.0,28,30.22,10.0,East,3.5,-,N/A,,Clear,100,2013-04-26 23:53:00
8:53 PM,70.0,53.1,55,30.24,10.0,Calm,Calm,-,N/A,,Clear,0,2013-04-27 00:53:00
9:53 PM,64.9,53.1,65,30.24,10.0,Calm,Calm,-,N/A,,Clear,0,2013-04-27 01:53:00
10:53 PM,64.9,52.0,63,30.24,10.0,East,4.6,-,N/A,,Clear,100,2013-04-27 02:53:00
11:53 PM,66.9,54.0,63,30.23,10.0,ESE,5.8,-,N/A,,Clear,110,2013-04-27 03:53:00